Temperature
16 16 16 16 16 16 16 16 16 16 15 15 15 15 15 15 15 15 15 15 15 15 15 14 14 14 14 14 15 15 15 15 15 15 15 15 15 15 15 15 15 15 15
16 16 16 16 16 16 16 16 15 15 15 15 15 15 15 15 15 15 15 15 14 14 14 14 14 14 14 14 14 14 14 14 14 14 14 14 14 15 15 14 15 15 15
16 16 16 16 16 16 15 15 15 15 15 15 15 15 15 15 14 14 14 14 14 14 14 14 14 14 14 14 14 14 14 14 14 14 14 14 14 14 14 14 14 14 14
16 16 16 16 15 15 15 15 15 15 15 15 14 14 14 14 14 14 14 14 14 14 14 14 14 14 14 14 14 14 14 14 14 14 14 14 14 14 14 14 14 14 14
16 16 16 15 15 15 15 15 15 15 15 14 14 14 14 14 14 14 14 14 14 14 14 14 14 14 14 14 14 14 14 14 14 14 14 14 14 14 14 13 13 13 14
16 16 16 15 15 15 15 15 15 15 15 14 14 14 14 14 14 14 14 14 14 14 14 14 14 13 13 13 13 13 14 14 14 13 13 13 13 13 13 13 13 13 13
16 16 15 15 15 15 15 15 15 14 14 14 14 14 14 14 14 13 13 14 13 13 13 13 13 13 13 13 13 13 13 13 13 13 13 13 13 13 13 13 13 13 13
16 15 15 15 15 15 15 15 14 14 14 14 14 14 13 13 13 13 13 13 13 13 13 13 13 13 13 13 13 13 13 13 13 13 13 13 13 13 13 13 13 13 12
15 15 15 15 15 15 15 14 14 14 14 14 14 14 13 13 13 13 13 13 13 13 13 13 13 13 13 13 13 13 13 13 12 12 12 12 12 12 12 12 12 12 12
15 15 15 15 15 15 14 14 14 14 14 14 14 14 14 13 13 13 13 13 13 13 13 13 13 12 12 12 12 12 12 12 12 12 12 12 12 12 12 12 12 12 11
15 15 15 15 15 15 14 14 14 14 14 14 14 14 14 13 13 13 12 12 12 12 12 12 12 12 12 12 12 12 12 12 12 12 12 12 12 12 11 11 11 11 11
15 15 15 15 15 15 14 14 14 14 14 14 14 14 14 14 13 13 13 12 12 12 12 12 12 12 12 12 12 12 12 11 11 11 11 11 11 11 11 11 11 11 11
15 15 15 15 15 15 14 14 14 14 14 14 14 14 14 14 14 13 13 12 12 12 12 12 12 12 12 12 11 11 11 11 11 11 11 11 11 11 11 11 11 11 10
15 15 15 15 15 15 14 14 14 14 14 14 14 14 14 14 13 13 13 13 12 12 12 12 11 11 11 11 11 11 11 11 11 11 11 11 11 11 10 10 10 10 10
15 15 15 15 15 15 14 14 14 14 14 14 14 14 14 14 13 13 13 13 13 12 11 11 11 11 11 11 11 11 11 10 10 10 10 10 10 10 10 10 10 10 10
15 15 15 15 15 14 14 14 14 14 14 14 14 14 13 13 13 13 13 13 13 13 12 11 11 11 11 11 11 11 10 10 10 10 10 10 10 10 10 10 10 10 10
15 15 15 15 14 14 14 14 14 14 14 14 14 13 13 13 13 13 13 12 12 12 12 12 11 11 11 10 10 10 10 10 10 10 10 10 10 10 10 10 9 9 9
15 14 14 14 14 14 14 14 14 14 14 14 13 13 13 13 13 13 13 12 12 12 12 12 11 11 10 10 10 10 10 10 10 10 10 9 9 9 9 9 9 9 9
14 14 14 14 14 14 14 14 14 14 14 13 13 13 13 13 13 13 12 12 12 12 12 11 11 11 10 10 10 10 10 10 10 9 9 9 9 9 9 9 9 9 9
14 14 14 14 14 14 14 14 14 13 13 13 13 13 13 13 13 12 12 12 12 11 11 11 11 11 10 10 10 10 10 10 9 9 9 9 9 9 9 9 9 8 8
14 14 14 14 14 14 13 13 13 13 13 13 13 13 13 12 12 12 12 12 12 11 11 11 11 10 10 10 10 10 10 9 9 9 9 9 9 9 9 8 8 8 8
14 14 14 13 13 13 13 13 13 13 13 13 13 13 12 12 12 12 12 12 11 11 11 11 11 10 10 10 10 10 10 9 9 9 9 9 9 9 8 8 8 8 8
13 13 13 13 13 13 13 13 13 13 13 13 12 12 12 12 12 12 12 12 11 11 11 11 11 11 10 10 10 10 10 9 9 9 9 9 8 8 8 8 8 8 8
13 13 13 13 13 13 13 13 13 12 12 12 12 12 12 12 12 11 11 11 11 11 11 10 10 10 10 10 10 10 9 9 9 9 8 8 8 8 8 8 8 8 8
12 12 12 12 12 12 12 12 12 12 12 12 12 12 12 12 11 11 11 11 11 11 10 10 10 10 10 10 10 10 9 9 9 9 8 8 8 8 8 8 8 8 7
12 12 12 12 12 12 12 12 12 12 12 12 12 12 12 11 11 11 11 11 11 11 10 10 10 10 10 9 9 9 9 9 8 8 8 8 8 7 7 8 7 7 7
Wind_Speed
2 3 3 4 5 6 6 6 6 7 7 7 8 8 7 8 8 9 9 11 11 10 10 11 10 10 9 9 10 10 10 10 10 9 9 10 11 11 11 11 11 10 10
3 3 3 3 4 6 6 6 6 6 5 6 6 7 7 7 8 9 9 9 12 12 11 10 10 10 10 10 10 10 10 10 10 9 9 10 10 10 10 10 10 10 10
5 5 3 3 4 6 7 7 6 6 5 5 5 6 6 7 7 8 8 9 10 11 11 11 11 11 10 9 9 9 9 9 9 9 9 9 9 10 10 10 10 10 9
6 5 4 3 5 6 6 5 4 4 4 4 4 4 5 6 7 7 8 9 9 9 11 12 11 11 11 10 9 9 9 9 8 8 8 9 9 9 9 9 10 10 11
6 6 4 4 6 5 4 4 3 4 4 4 4 4 4 4 5 6 7 8 8 9 9 10 12 12 11 11 10 9 9 9 8 8 7 8 9 9 9 9 10 11 11
6 6 5 4 5 4 4 4 4 4 3 4 5 5 4 4 5 5 5 6 8 8 9 9 10 10 12 12 11 10 9 8 8 8 8 9 10 10 10 10 10 11 12
6 6 4 4 4 4 4 5 4 5 3 3 4 4 4 5 5 4 5 5 6 7 9 9 9 9 9 11 12 11 11 10 9 9 8 8 9 10 10 11 11 12 12
5 5 5 4 4 4 4 4 4 3 2 2 3 2 2 4 4 5 4 4 4 6 6 7 8 8 8 9 10 11 11 11 10 10 9 9 9 9 10 10 11 11 12
4 5 5 5 4 4 4 4 4 4 3 1 1 3 2 1 1 3 3 4 4 4 4 6 7 7 7 8 8 10 11 11 10 10 9 9 9 9 9 10 10 11 11
3 4 5 5 4 4 4 3 3 3 4 2 0 1 2 3 2 1 2 3 3 3 4 4 5 6 6 7 7 9 10 11 11 10 10 9 8 8 9 9 10 10 11
2 3 4 4 4 4 4 3 3 2 2 3 2 1 2 2 2 2 1 2 2 2 2 3 4 4 5 5 6 7 9 10 11 11 11 11 9 9 9 9 9 10 10
1 2 4 4 3 3 4 3 3 3 2 2 2 2 2 2 2 2 2 1 1 2 2 3 3 4 4 4 5 6 8 9 10 11 12 12 10 10 9 9 10 10 10
1 2 3 3 3 3 4 3 3 2 3 3 3 2 2 2 2 3 3 2 1 1 2 2 2 3 3 4 4 5 7 8 10 10 11 11 10 10 9 9 10 10 10
3 3 3 4 4 4 4 4 3 2 2 3 3 3 2 2 2 3 3 4 2 0 1 2 1 2 3 3 3 5 6 8 8 9 10 10 10 10 10 10 10 10 10
2 3 3 3 3 4 4 4 3 2 2 2 2 2 2 2 2 2 3 4 4 2 1 1 1 1 2 3 4 5 6 7 7 8 8 9 9 9 9 10 10 10 10
2 3 3 3 3 3 4 3 3 2 3 2 2 2 2 1 2 2 3 2 3 3 2 1 1 0 1 3 4 5 5 5 6 6 7 7 8 8 8 9 9 9 9
2 3 4 3 4 3 3 4 3 3 3 2 2 2 2 2 2 2 2 2 2 2 2 1 0 1 2 2 3 4 5 5 6 6 7 6 6 6 6 7 7 7 8
2 2 3 3 3 3 4 4 4 3 3 3 3 2 2 2 2 2 2 2 2 2 3 3 1 1 1 1 2 3 3 4 5 5 6 5 5 6 6 6 6 6 7
2 2 2 3 3 3 3 4 4 4 3 3 3 3 3 3 3 2 3 2 2 2 2 3 2 1 1 1 2 3 3 4 3 4 5 4 4 5 5 5 5 5 5
2 2 2 2 2 3 3 3 4 3 3 3 3 3 3 4 4 4 3 3 3 3 3 3 2 1 1 1 2 2 2 2 2 3 3 3 3 3 3 3 3 3 3
2 2 2 1 1 2 3 3 4 4 3 3 2 2 3 4 5 5 4 4 5 4 4 3 2 1 1 2 2 2 1 1 1 1 2 2 2 2 1 1 0 1 1
2 2 2 2 1 2 3 4 4 3 3 3 2 2 2 2 4 5 6 6 7 6 5 4 3 3 3 3 2 3 2 2 1 1 1 1 1 1 2 1 1 1 1
2 2 2 2 2 2 3 4 4 3 4 3 3 2 2 2 3 3 4 5 5 6 7 6 5 5 5 5 5 4 3 3 2 2 2 0 1 1 3 3 3 3 3
3 2 2 2 2 2 2 3 4 3 3 2 3 4 3 2 3 4 4 3 2 2 4 4 5 5 4 6 7 6 5 3 1 0 2 1 1 1 2 3 3 3 4
2 2 2 3 2 2 2 4 4 2 2 2 2 3 4 3 5 6 5 4 2 1 2 4 4 4 4 6 7 5 4 3 1 2 2 2 2 1 1 2 3 3 4
3 2 2 2 2 2 3 4 4 2 2 2 1 2 4 5 6 7 5 5 5 3 2 2 2 2 3 5 6 5 5 4 2 2 3 3 2 1 1 2 2 3 3
Wind_Direction
104 94 84 82 82 87 90 84 81 80 74 69 69 69 61 56 50 44 37 45 54 61 62 63 63 66 68 70 70 69 70 67 68 67 66 65 63 62 60 58 53 49 49
132 115 98 89 87 95 97 93 88 86 78 75 67 64 61 58 52 47 40 41 47 54 59 62 62 63 66 70 71 69 67 65 67 68 66 66 66 65 61 59 55 50 46
140 128 118 105 104 107 103 97 88 85 82 74 60 57 60 56 52 48 46 43 40 43 48 55 59 60 63 67 68 67 66 64 67 67 68 67 68 67 63 62 58 55 51
146 132 124 118 119 113 109 104 96 89 79 73 62 49 50 53 51 51 52 48 43 39 40 45 50 54 57 61 63 64 64 65 66 66 67 70 71 69 66 65 59 54 52
145 135 133 131 126 115 109 113 99 103 99 86 76 60 48 46 48 52 51 48 46 43 39 37 41 44 47 49 52 56 60 60 61 65 71 76 74 71 68 68 64 58 58
138 134 133 128 124 111 103 110 107 94 100 97 84 64 47 44 51 48 46 47 46 44 42 39 36 36 39 40 41 43 50 56 56 59 71 78 75 73 69 68 66 63 63
141 138 135 128 125 125 130 126 115 102 92 98 84 57 38 44 50 42 41 48 44 41 44 42 40 38 34 38 36 39 42 48 53 57 66 75 76 74 70 68 66 65 64
146 149 140 141 137 129 126 129 124 119 122 98 101 90 39 17 23 32 35 46 38 41 41 40 41 39 37 36 34 39 42 44 49 57 64 70 76 76 75 71 69 68 66
145 145 145 141 143 143 151 156 148 140 152 128 104 129 129 178 346 2 24 37 33 33 30 35 38 34 35 35 33 36 40 43 50 53 57 63 70 78 79 74 72 70 68
144 147 144 144 146 146 152 164 153 152 149 165 113 72 133 149 145 12 352 7 28 32 20 30 31 30 33 38 35 39 41 42 48 54 53 56 66 76 79 76 74 73 71
141 148 149 146 150 157 162 163 153 159 159 165 160 140 103 86 118 147 223 336 7 11 15 19 29 31 33 38 41 45 46 49 52 53 51 51 60 69 72 73 74 74 73
151 150 147 150 156 158 167 175 170 170 169 163 161 158 162 161 168 158 176 208 320 336 3 14 22 25 30 37 47 52 56 60 62 58 54 50 52 61 65 69 74 74 74
196 194 169 165 169 172 169 159 155 168 172 172 178 185 182 186 161 156 156 169 172 322 347 354 8 22 31 45 46 63 71 71 70 66 62 59 55 55 61 68 73 74 72
203 190 177 176 180 175 171 163 163 174 163 174 179 174 171 187 167 164 162 155 148 342 351 309 345 21 33 53 64 75 80 77 75 72 70 68 65 63 63 68 69 69 68
193 182 177 185 186 177 172 166 166 169 159 175 183 176 175 189 177 174 163 160 157 173 236 262 305 351 51 76 79 82 81 77 75 74 76 75 73 69 66 68 68 67 68
178 178 178 185 187 182 176 164 166 171 155 177 182 169 179 192 172 161 160 159 157 163 186 215 226 299 79 95 83 83 86 79 79 77 76 76 77 75 73 71 71 70 71
165 179 178 178 181 176 176 169 176 174 172 182 190 181 198 177 163 157 148 143 143 141 160 199 58 49 78 79 72 80 84 87 87 81 76 74 78 80 84 79 75 73 72
156 169 169 171 180 177 174 175 182 177 181 192 200 183 199 170 154 153 152 152 152 148 155 164 126 77 81 112 90 77 75 81 88 80 75 74 80 85 88 85 80 75 71
165 157 156 170 181 182 178 181 177 178 185 196 197 190 194 163 165 162 156 157 153 135 128 148 147 109 84 89 78 65 58 47 66 73 75 75 84 86 88 88 85 76 70
169 171 178 180 175 178 184 178 169 172 178 192 197 191 186 177 180 173 168 167 149 131 125 132 136 125 111 93 106 100 63 39 34 56 66 63 70 78 83 86 87 81 74
167 160 156 161 159 176 189 176 175 178 174 175 179 186 186 185 184 175 170 169 158 149 143 144 150 134 142 145 176 166 144 84 27 36 49 27 40 47 36 36 72 91 89
147 143 159 168 191 211 188 180 173 174 172 171 177 194 189 187 192 182 174 167 163 165 170 167 174 183 200 186 161 161 150 130 265 295 111 347 27 303 286 260 248 254 259
151 166 183 185 223 221 199 182 173 172 175 183 185 186 194 193 176 170 167 165 171 172 170 170 177 200 197 193 171 164 167 165 201 208 134 258 333 289 277 267 259 253 254
177 188 199 201 199 211 191 170 167 165 171 188 198 191 184 193 177 164 153 145 160 182 182 176 192 204 196 182 179 178 171 148 100 82 149 199 253 272 298 284 267 251 243
186 200 197 189 180 207 193 176 158 158 167 203 216 197 185 190 182 162 154 158 169 220 193 177 177 176 168 166 159 136 139 141 207 243 190 186 214 259 285 282 281 261 243
185 187 189 191 187 208 208 183 165 165 173 204 219 213 196 193 183 171 174 174 185 213 176 141 131 128 134 151 163 167 172 171 177 224 203 182 193 183 283 283 298 279 254
Height
1546 1547 1547 1547 1548 1549 1549 1549 1549 1549 1549 1549 1549 1549 1549 1549 1549 1548 1547 1547 1546 1546 1545 1544 1544 1544 1544 1543 1543 1543 1542 1542 1542 1542 1542 1542 1542 1541 1541 1541 1541 1540 1540
1547 1547 1548 1548 1549 1549 1550 1550 1550 1550 1550 1550 1550 1550 1550 1550 1549 1549 1549 1548 1548 1547 1547 1546 1545 1545 1545 1545 1544 1544 1543 1543 1543 1543 1543 1542 1542 1542 1542 1541 1541 1540 1539
1547 1548 1548 1549 1550 1550 1550 1550 1551 1551 1551 1551 1551 1551 1551 1551 1550 1550 1550 1549 1549 1548 1548 1547 1547 1547 1546 1546 1545 1545 1544 1544 1544 1543 1543 1543 1543 1542 1542 1541 1541 1540 1538
1547 1548 1549 1549 1550 1550 1551 1551 1551 1551 1551 1551 1551 1551 1552 1552 1551 1551 1551 1551 1550 1550 1549 1549 1548 1548 1548 1547 1546 1546 1545 1545 1544 1544 1544 1543 1543 1543 1542 1542 1541 1539 1537
1547 1548 1549 1549 1550 1551 1551 1552 1552 1552 1552 1552 1552 1552 1552 1552 1552 1552 1552 1552 1551 1551 1551 1550 1550 1549 1549 1548 1547 1547 1546 1545 1545 1544 1544 1544 1543 1543 1543 1542 1541 1540 1537
1547 1548 1549 1549 1550 1551 1551 1552 1552 1552 1552 1552 1552 1552 1552 1553 1553 1553 1553 1553 1553 1552 1552 1551 1551 1550 1549 1549 1548 1547 1547 1546 1545 1545 1544 1544 1544 1544 1543 1542 1542 1541 1540
1546 1547 1548 1549 1550 1551 1551 1552 1552 1553 1553 1553 1553 1553 1553 1553 1554 1554 1554 1554 1554 1553 1553 1552 1552 1551 1550 1549 1549 1548 1547 1546 1546 1545 1545 1545 1544 1544 1544 1543 1543 1542 1541
1546 1547 1548 1549 1550 1550 1551 1552 1552 1553 1553 1553 1553 1553 1554 1555 1554 1555 1555 1554 1554 1554 1553 1553 1552 1551 1551 1550 1549 1549 1548 1547 1547 1546 1546 1545 1545 1545 1544 1544 1543 1543 1542
1546 1546 1547 1548 1549 1550 1551 1552 1553 1553 1553 1554 1554 1554 1554 1554 1555 1555 1555 1555 1555 1554 1554 1553 1553 1552 1551 1550 1550 1549 1548 1548 1547 1547 1546 1546 1546 1545 1545 1544 1544 1543 1543
1545 1546 1547 1548 1549 1550 1551 1551 1552 1553 1553 1553 1554 1554 1555 1554 1554 1555 1555 1555 1555 1554 1554 1553 1553 1552 1551 1551 1550 1549 1549 1548 1547 1547 1547 1546 1546 1545 1545 1544 1544 1544 1543
1545 1545 1547 1547 1548 1549 1550 1551 1552 1552 1553 1553 1553 1553 1553 1554 1554 1554 1554 1554 1554 1554 1553 1553 1552 1552 1551 1551 1550 1549 1549 1548 1547 1547 1547 1546 1545 1545 1545 1545 1544 1544 1544
1544 1545 1546 1547 1548 1549 1549 1550 1551 1551 1552 1552 1552 1553 1553 1553 1553 1553 1552 1553 1553 1553 1553 1552 1552 1551 1551 1550 1550 1549 1549 1548 1548 1547 1547 1546 1545 1545 1545 1545 1545 1544 1544
1543 1544 1545 1546 1546 1547 1548 1549 1550 1550 1551 1551 1551 1551 1551 1552 1552 1552 1552 1551 1552 1552 1552 1552 1551 1551 1550 1550 1550 1549 1549 1548 1548 1547 1547 1546 1546 1545 1545 1545 1545 1544 1544
1542 1543 1544 1544 1545 1546 1547 1547 1548 1549 1549 1550 1550 1550 1550 1550 1551 1550 1550 1550 1550 1551 1551 1551 1551 1550 1550 1549 1549 1549 1548 1548 1547 1547 1547 1546 1546 1546 1545 1545 1545 1545 1545
1540 1541 1542 1543 1544 1544 1545 1546 1546 1547 1547 1548 1548 1549 1549 1549 1549 1549 1549 1549 1550 1549 1549 1549 1550 1549 1549 1549 1548 1548 1548 1548 1547 1547 1547 1546 1546 1546 1546 1545 1545 1545 1545
1538 1539 1540 1541 1542 1542 1543 1544 1545 1545 1546 1546 1546 1547 1547 1547 1547 1547 1547 1548 1548 1548 1547 1548 1548 1548 1548 1548 1548 1548 1548 1548 1547 1547 1547 1547 1546 1546 1546 1545 1545 1545 1545
1536 1537 1538 1539 1540 1540 1541 1542 1543 1543 1543 1544 1544 1544 1544 1545 1545 1545 1545 1546 1546 1546 1546 1546 1546 1547 1547 1547 1547 1547 1547 1547 1547 1547 1547 1546 1546 1546 1546 1546 1545 1545 1545
1534 1535 1536 1537 1537 1538 1539 1540 1540 1541 1541 1542 1542 1542 1542 1543 1543 1543 1544 1544 1544 1545 1545 1544 1545 1545 1546 1546 1546 1546 1546 1546 1546 1546 1546 1546 1546 1546 1545 1545 1545 1545 1545
1532 1533 1534 1534 1535 1536 1537 1537 1538 1538 1539 1539 1539 1540 1540 1540 1541 1541 1541 1542 1542 1543 1543 1543 1543 1543 1544 1544 1544 1545 1545 1545 1545 1545 1545 1545 1545 1545 1545 1545 1544 1544 1544
1530 1531 1532 1532 1533 1534 1534 1535 1536 1536 1536 1537 1537 1537 1538 1538 1538 1539 1539 1540 1540 1541 1541 1541 1541 1542 1542 1543 1543 1544 1544 1544 1544 1544 1544 1544 1544 1544 1544 1544 1543 1543 1543
1528 1529 1530 1530 1531 1531 1532 1533 1533 1534 1534 1534 1535 1535 1535 1536 1536 1537 1537 1538 1538 1538 1539 1539 1539 1539 1540 1541 1541 1542 1542 1542 1542 1543 1543 1543 1542 1542 1542 1542 1542 1542 1541
1526 1527 1527 1528 1528 1529 1530 1530 1531 1531 1532 1532 1532 1533 1533 1533 1534 1535 1535 1536 1536 1536 1536 1537 1537 1537 1538 1539 1540 1540 1540 1540 1540 1542 1541 1541 1541 1541 1541 1541 1540 1540 1539
1523 1524 1525 1525 1526 1527 1527 1528 1528 1529 1529 1529 1530 1530 1531 1531 1532 1532 1533 1533 1533 1534 1535 1535 1535 1535 1536 1537 1538 1538 1538 1538 1539 1539 1539 1538 1539 1539 1539 1538 1538 1538 1538
1521 1521 1522 1523 1523 1524 1524 1525 1526 1526 1527 1527 1527 1528 1528 1528 1529 1530 1530 1530 1531 1532 1532 1533 1534 1534 1535 1535 1535 1536 1536 1536 1537 1537 1537 1536 1536 1536 1536 1536 1536 1536 1535
1518 1519 1519 1520 1520 1521 1522 1522 1523 1523 1524 1524 1524 1525 1525 1526 1526 1527 1528 1528 1528 1529 1530 1531 1531 1532 1532 1533 1533 1534 1533 1534 1533 1534 1534 1534 1534 1533 1534 1533 1533 1533 1533
1516 1516 1517 1518 1518 1518 1519 1520 1521 1521 1521 1521 1521 1522 1522 1523 1524 1524 1525 1525 1525 1526 1527 1528 1529 1529 1530 1530 1530 1531 1531 1531 1531 1531 1531 1531 1531 1531 1531 1530 1530 1530 1530